Location: Fort Wayne
(41.1310°N, 85.1290°W)
Time: 17:23:18
(UTC-04:00)

Daily predictions for brighter satellites

Satellite Brightness Start Highest point End
(mag) Time Altitude Azimuth Time Altitude Azimuth Time Altitude Azimuth
Spot 2 Rocket 3.5 21:44:39 10° SSE 21:49:41 78° ENE 21:54:46 10° N
Cosmos 1420 Rocket 4.2 21:46:30 10° NNW 21:51:41 73° WSW 21:56:50 10° S
Cosmos 1452 Rocket 4.0 21:47:02 10° NNW 21:52:16 63° WSW 21:57:28 10° S
Cosmos 1844 Rocket 2.9 21:52:08 10° S 21:57:36 52° ESE 22:03:05 10° NNE
COSMOS 2406 4.2 21:53:48 10° N 21:59:01 34° ENE 22:04:12 10° ESE
NOAA 11 4.4 21:55:59 10° S 22:01:23 74° WSW 22:06:49 10° NNW
Cosmos 1844 4.0 21:58:36 10° S 22:03:58 45° ESE 22:09:25 10° NE
SL-08 RB Rocket 4.4 22:01:31 10° SE 22:05:52 41° ENE 22:10:15 10° N
ATLAS 3B R/B 3.4 22:00:25 10° NNW 22:06:39 40° NE 22:12:47 10° ESE
Cosmos 1238 Rocket 2.1 22:05:07 10° S 22:08:01 61° E 22:11:03 10° NNE
Cosmos 1110 Rocket 4.5 22:03:55 10° N 22:08:54 46° ENE 22:13:32 12° SE
Cosmos 2285 Rocket 4.0 22:02:43 10° SSW 22:09:02 83° ESE 22:15:22 10° NNE
SPOT 5 4.4 22:06:32 10° ESE 22:10:38 25° ENE 22:14:51 10° NNE
Cosmos 2266 Rocket 4.5 22:04:19 10° NNW 22:10:39 66° W 22:16:52 10° S
USA 238 DEB 4.2 22:03:55 10° NNW 22:10:57 57° NE 22:17:40 12° SE
USA 238 4.2 22:04:02 10° NNW 22:11:03 57° NE 22:17:45 12° SE
Cosmos 2084 3.1 22:08:49 10° NW 22:12:40 89° SW 22:16:07 13° SE
Lacrosse 5 2.7 22:09:49 10° WSW 22:14:47 56° NW 22:19:47 10° NE
ATLAS 5 CENTAUR R/B 3.5 22:14:23 11° ESE 22:14:56 11° ESE 22:16:18 10° E
Cosmos 1346 Rocket 2.9 22:11:11 10° N 22:15:11 62° ENE 22:19:03 11° SSE
Cosmos-2242 3.1 22:12:40 10° N 22:17:03 64° E 22:21:20 10° SSE
Aureole 1 Rocket 4.4 22:18:04 10° SW 22:21:05 34° WNW 22:24:45 10° N
Cosmos 1331 Rocket 4.3 22:16:15 10° N 22:21:21 52° ENE 22:25:39 14° SE
Meteor 1-24 Rocket 3.9 22:15:51 10° S 22:21:53 86° E 22:27:56 10° N
Cosmos 494 Rocket 4.0 22:17:55 10° S 22:23:03 61° ESE 22:28:15 10° NNE
H-2A R/B 2.2 22:18:45 11° SSE 22:23:53 67° ENE 22:29:16 10° N
Timation 1 Rocket 4.3 22:19:18 10° SSW 22:25:14 76° ESE 22:31:13 10° NNE
Cosmos 1269 Rocket 4.4 22:21:47 10° SSW 22:27:04 71° WNW 22:32:23 10° NNE
Cosmos 2082 Rocket 4.3 22:25:02 10° NNE 22:28:16 15° NE 22:31:29 10° E
Helios 1A 4.1 22:28:25 15° ESE 22:31:06 29° ENE 22:34:44 10° N
Helios 1B rocket 4.0 22:29:31 10° NE 22:32:26 19° E 22:33:41 16° ESE
Centaur D-1AR AC-36 4.4 22:26:12 10° WSW 22:34:40 16° SW 22:38:35 10° S
Cosmos 1908 3.2 22:31:22 10° N 22:35:14 69° E 22:38:07 17° SSE
Cosmos 1842 Rocket 4.3 22:32:34 10° N 22:36:37 37° ENE 22:39:11 19° SE
ATLAS 2AS CENTAUR R/B 3.3 22:29:50 10° SW 22:37:39 78° NW 22:45:51 10° NNE
CZ-2C R/B 4.5 22:35:58 10° ENE 22:38:17 13° E 22:39:35 12° ESE
Cosmos 1340 3.1 22:36:48 10° N 22:40:28 45° ENE 22:42:34 22° SE
CSL-04 DEB 4.4 22:40:29 20° SSE 22:43:02 60° ENE 22:46:56 10° N
Cosmos 1553 Rocket 3.9 22:38:16 10° S 22:44:17 70° E 22:50:19 10° NNE
MetOp-B 4.3 22:43:42 13° S 22:48:33 75° WSW 22:53:55 10° NNW
Cosmos 1437 4.3 22:46:55 10° NNW 22:49:46 31° W 22:52:33 10° SSW
Cosmos 1302 Rocket 4.4 22:45:09 10° N 22:50:21 53° ENE 22:53:36 22° SE
ERS-1 Rocket 2.9 22:46:45 17° SSE 22:50:38 86° ENE 22:55:42 10° NNW
DMSP B5D2-2 4.1 22:46:43 10° NNE 22:51:56 65° ESE 22:56:33 13° S
Cosmos 1674 3.2 22:50:50 10° SSW 22:54:35 59° W 22:58:23 10° N
Meteor 2-1 Rocket 4.4 22:53:03 10° NNW 22:58:59 78° W 23:03:44 16° S
Cosmos 1300 3.3 22:56:31 10° N 23:00:09 39° ENE 23:01:28 29° ESE
Meteor 2-10 4.1 22:55:32 10° N 23:01:00 85° E 23:04:53 21° S
Cosmos 2251 Rocket 3.5 22:56:54 10° S 23:02:12 69° ESE 23:07:30 10° NNE
USA 215 4.2 22:58:50 15° S 23:03:38 37° SW 23:09:38 10° WNW
Terra 2.6 23:02:30 23° ESE 23:04:46 38° ENE 23:09:10 10° N
Cosmos 1726 2.3 23:01:24 10° NNW 23:05:09 70° W 23:07:13 25° S
RESURS DK-1 4.2 23:06:04 16° E 23:06:04 16° E 23:08:00 10° ENE
Resurs 01 Rocket 4.4 23:04:16 10° WSW 23:05:45 11° W 23:07:15 10° WNW
Cosmos 2221 3.2 23:02:31 10° N 23:06:36 40° ENE 23:08:10 29° SE
Cosmos 921 Rocket 4.2 23:06:12 10° NNW 23:10:23 39° W 23:13:35 16° SSW
H-2A R/B 4.2 23:09:34 22° SE 23:11:00 23° SE 23:26:38 10° E
NOSS 2-2 (E) 3.6 23:11:46 34° SSE 23:12:49 43° ESE 23:16:51 10° NE
CENTAUR R/B 4.0 23:06:14 10° NNW 23:13:36 41° NE 23:20:13 15° ESE
OAO 3 Rocket 4.0 23:09:54 10° WSW 23:14:21 33° SSW 23:15:31 29° SSE
NOSS 3-4 (A) 3.4 23:08:59 10° SSW 23:15:04 68° ESE 23:21:24 10° NE
NOSS 3-4 (C) 3.4 23:09:05 10° SSW 23:15:09 67° ESE 23:21:29 10° NE
Meteor 1-29 3.5 23:12:23 10° NNE 23:15:34 37° E 23:15:42 37° ESE
EP 1 4.1 23:16:32 50° SW 23:17:06 89° WNW 23:19:41 10° NE
Cosmos 1461 3.1 23:17:16 10° SSW 23:21:53 89° NW 23:26:41 10° NNE
Cosmos 1328 4.4 23:21:27 35° ESE 23:21:59 37° E 23:25:39 10° NNE
CZ-2C R/B 3.7 23:19:33 28° SE 23:22:29 53° ENE 23:28:03 10° N
Cosmos 2278 Rocket 2.1 23:19:00 10° SSW 23:24:40 87° ESE 23:30:23 10° NNE
ATLAS 3B CENTAUR R/B 4.0 23:17:14 10° SW 23:31:55 33° S 23:35:02 27° SSE
APEX 3.5 23:31:08 10° NW 23:34:17 49° WSW 23:35:06 40° SSW
IGS 5A 3.4 23:33:19 43° SSE 23:34:38 89° WNW 23:38:48 10° NNW
Nimbus 7 Rocket 4.5 23:32:22 10° NNE 23:38:21 63° ESE 23:41:14 31° S
Cosmos 1745 Rocket 4.5 23:33:41 10° NNW 23:39:51 57° W 23:43:58 21° SSW
COSMOS 2406 4.3 23:38:07 10° NW 23:43:18 36° WSW 23:46:26 21° SSW
NOSS 2-2 (D) 3.1 23:42:35 46° SSW 23:43:39 77° ESE 23:47:55 10° NE
CARTOSAT-1 3.6 23:43:53 42° S 23:45:15 70° W 23:49:34 10° NNW
SL-14 R/B 4.2 23:44:52 24° SW 23:46:48 43° WNW 23:50:34 10° N
SPOT 5 3.9 23:45:39 23° SSW 23:48:23 42° W 23:53:24 10° NNW
Cosmos 2369 Rocket 4.4 23:54:56 10° E 23:54:56 10° E 23:55:12 10° E
